Probability
3 10 52 42 35 48 45 39 39 48 48 42 39 45 45 48 48 48 48 48 52 52 58 58 58 58 55 58 61 55 55 58 48 55 55 61 61 61 65 61 52 48 61
3 26 52 48 39 42 48 42 35 39 39 39 35 45 42 39 42 42 42 45 55 52 52 48 61 52 48 55 48 52 52 48 42 45 48 48 45 58 61 65 52 39 48
16 29 42 52 42 52 45 45 42 35 35 39 45 42 42 39 42 42 39 45 52 48 48 48 55 52 42 48 42 48 45 42 35 45 35 26 29 48 48 52 42 45 32
19 29 39 55 45 45 45 42 45 35 35 39 42 35 39 35 35 35 39 48 48 52 48 42 42 42 32 45 35 35 39 35 32 42 0 6 10 39 45 35 45 39 39
23 29 52 55 42 42 42 39 32 39 39 35 29 29 35 35 35 26 26 39 39 32 35 35 39 39 26 35 26 29 32 35 26 6 0 3 10 32 39 42 42 39 39
23 26 35 52 39 39 35 39 35 42 42 35 26 29 32 32 26 29 29 29 29 29 29 29 26 29 29 29 23 26 19 23 6 3 0 6 10 32 39 42 52 45 42
23 29 35 52 52 39 35 32 32 35 39 29 29 29 35 23 26 23 23 26 29 29 19 19 16 26 26 19 26 23 23 19 3 0 3 6 19 39 45 48 45 48 48
19 29 39 52 45 45 39 35 35 35 35 29 35 32 29 23 26 26 23 23 23 16 16 13 13 19 19 23 23 26 23 16 3 0 3 6 39 48 45 42 42 39 45
10 16 29 32 35 52 48 45 42 42 39 35 35 35 32 35 29 19 19 26 19 16 13 10 10 10 19 26 29 29 26 16 0 0 3 10 42 52 45 39 39 39 42
10 13 13 23 26 26 29 52 48 35 39 35 35 35 32 32 26 19 13 23 19 13 13 13 16 16 16 23 19 29 32 16 0 0 3 19 42 48 48 48 39 39 35
10 13 13 13 13 13 16 29 35 42 42 45 39 35 23 10 10 10 16 23 23 13 13 13 13 10 13 16 16 26 16 3 0 3 3 26 35 39 39 35 39 42 39
10 10 13 10 10 13 10 13 16 16 13 13 10 10 3 0 3 0 6 23 23 19 16 13 13 10 0 0 0 3 0 0 0 3 3 39 32 32 29 32 32 32 39
10 10 10 10 10 10 10 10 10 10 10 10 6 6 3 0 0 0 0 6 6 6 3 3 3 0 0 0 0 0 0 0 0 3 6 42 32 35 32 32 35 29 29
10 13 10 10 10 10 10 10 10 10 6 3 3 3 0 0 0 0 0 0 0 0 0 0 0 0 0 3 0 0 0 0 0 0 6 39 32 32 32 32 32 32 29
6 10 10 10 10 10 10 10 10 10 6 6 3 3 0 0 0 0 0 0 0 0 0 0 0 0 3 3 3 3 3 3 0 0 0 26 35 29 32 32 29 29 29
3 6 10 10 6 10 10 10 10 10 6 3 3 3 3 0 0 0 0 0 0 0 0 0 0 0 0 0 3 3 3 0 0 0 0 3 26 39 35 26 29 32 29
3 6 6 6 3 6 10 6 6 10 6 3 3 3 3 3 0 0 0 0 0 0 0 0 0 0 0 0 0 0 0 0 0 0 0 0 0 16 42 32 26 29 29
3 6 6 3 3 3 6 6 6 6 6 3 3 3 3 3 3 0 0 0 0 0 0 0 0 0 0 0 0 0 0 0 0 0 0 0 0 0 10 23 23 23 26
0 3 3 3 3 3 6 6 6 3 6 3 3 3 3 3 3 0 0 0 0 0 0 0 0 0 0 0 0 0 0 0 0 0 0 0 0 0 0 6 16 16 19
0 0 0 0 0 0 6 3 3 0 0 0 0 3 3 3 3 3 0 0 0 0 0 0 0 0 0 0 0 0 0 0 0 0 0 0 0 0 0 0 6 10 16
0 0 0 0 0 0 0 3 0 0 0 0 0 0 3 3 3 0 0 0 0 0 0 0 0 0 0 0 0 0 0 0 0 0 0 0 0 0 0 0 0 0 6
0 0 0 0 0 0 0 3 0 0 0 0 3 0 3 3 0 3 0 0 0 0 0 0 0 0 0 0 0 0 0 0 0 0 0 0 0 0 0 0 0 0 0
0 0 0 0 0 0 0 0 3 0 0 0 0 0 0 3 3 3 0 0 0 0 0 0 0 0 0 0 0 0 0 0 0 0 0 0 0 0 0 0 0 0 0
0 0 0 0 0 0 0 0 0 0 0 0 0 0 0 0 0 3 3 3 3 0 0 0 0 0 0 0 0 0 0 0 0 0 0 0 0 0 0 0 0 0 0
0 0 0 0 0 0 0 0 0 0 0 0 0 0 0 0 0 0 0 3 0 0 0 0 0 0 0 0 0 0 0 0 0 0 0 0 0 0 0 0 0 0 0
0 0 0 0 0 0 0 0 0 0 0 0 0 0 0 0 0 0 0 0 0 0 0 0 0 0 0 0 0 0 0 0 0 0 0 0 0 0 0 0 0 0 0
Height
5867 5866 5866 5865 5865 5865 5865 5865 5865 5864 5864 5864 5864 5864 5865 5865 5865 5865 5865 5865 5866 5866 5866 5866 5866 5865 5866 5866 5866 5866 5866 5866 5867 5867 5868 5868 5869 5870 5870 5871 5872 5872 5873
5866 5866 5865 5865 5865 5864 5864 5864 5864 5864 5864 5864 5863 5863 5864 5864 5864 5864 5864 5864 5864 5864 5865 5865 5865 5865 5865 5865 5865 5865 5865 5865 5866 5866 5866 5867 5868 5868 5869 5870 5870 5871 5871
5865 5865 5864 5864 5864 5864 5863 5863 5863 5863 5863 5863 5863 5862 5862 5863 5863 5863 5863 5863 5863 5863 5863 5863 5863 5864 5864 5864 5864 5864 5864 5864 5864 5865 5865 5866 5866 5867 5868 5868 5869 5869 5870
5864 5864 5864 5863 5863 5863 5862 5862 5862 5862 5862 5862 5861 5861 5861 5861 5861 5861 5861 5862 5862 5862 5862 5862 5862 5862 5863 5863 5863 5863 5863 5863 5863 5863 5863 5864 5865 5865 5866 5866 5867 5868 5868
5863 5863 5863 5862 5862 5862 5861 5861 5861 5861 5861 5860 5860 5860 5860 5860 5860 5860 5860 5860 5860 5860 5860 5860 5860 5861 5861 5861 5861 5861 5861 5861 5861 5862 5862 5862 5863 5863 5864 5864 5865 5865 5866
5862 5862 5862 5861 5861 5861 5860 5860 5860 5860 5859 5859 5859 5858 5858 5858 5858 5858 5858 5858 5859 5858 5858 5858 5859 5859 5859 5859 5859 5859 5859 5859 5859 5860 5860 5861 5861 5861 5862 5862 5863 5863 5864
5861 5861 5861 5860 5860 5859 5859 5859 5859 5858 5858 5858 5857 5857 5857 5857 5857 5857 5857 5857 5857 5857 5856 5856 5857 5857 5857 5857 5857 5857 5857 5857 5857 5858 5858 5859 5859 5859 5859 5860 5861 5861 5862
5860 5860 5859 5859 5858 5858 5858 5857 5857 5857 5857 5856 5856 5856 5855 5855 5855 5855 5855 5855 5855 5855 5854 5854 5855 5855 5855 5855 5855 5855 5855 5855 5855 5856 5856 5856 5857 5857 5857 5858 5858 5859 5859
5859 5859 5858 5857 5857 5857 5856 5856 5856 5856 5855 5855 5854 5854 5854 5853 5853 5853 5853 5853 5853 5852 5852 5852 5852 5852 5852 5853 5853 5853 5853 5853 5853 5853 5854 5854 5854 5855 5855 5855 5856 5857 5857
5858 5857 5857 5856 5856 5855 5855 5855 5854 5854 5854 5853 5853 5852 5852 5851 5851 5851 5851 5850 5850 5850 5850 5850 5850 5850 5850 5850 5850 5850 5850 5850 5851 5851 5851 5852 5852 5852 5853 5853 5853 5854 5854
5857 5856 5855 5855 5854 5854 5853 5853 5853 5852 5852 5851 5851 5850 5850 5849 5849 5849 5848 5848 5848 5848 5847 5847 5847 5847 5847 5847 5847 5847 5847 5847 5848 5848 5848 5849 5850 5850 5850 5851 5851 5851 5852
5855 5855 5854 5853 5853 5852 5852 5851 5851 5851 5850 5850 5849 5848 5848 5847 5847 5846 5846 5845 5845 5845 5845 5845 5844 5844 5844 5844 5844 5844 5844 5845 5845 5845 5846 5846 5846 5847 5847 5848 5848 5848 5849
5854 5853 5853 5852 5851 5851 5850 5850 5849 5849 5848 5847 5847 5846 5846 5845 5844 5844 5844 5843 5843 5842 5842 5842 5842 5842 5841 5841 5841 5842 5842 5842 5842 5842 5843 5843 5843 5844 5844 5845 5845 5845 5846
5852 5852 5851 5850 5850 5849 5848 5848 5847 5847 5846 5845 5845 5844 5843 5843 5842 5841 5841 5841 5840 5840 5839 5839 5839 5839 5838 5838 5838 5839 5839 5838 5839 5839 5840 5840 5840 5841 5841 5842 5842 5842 5843
5850 5850 5849 5849 5848 5847 5846 5846 5845 5844 5844 5843 5842 5842 5841 5840 5840 5839 5838 5838 5837 5837 5836 5836 5836 5836 5835 5835 5835 5835 5835 5835 5836 5836 5837 5837 5837 5838 5838 5839 5839 5839 5839
5848 5848 5847 5846 5846 5845 5844 5843 5842 5842 5841 5841 5840 5839 5838 5838 5837 5836 5836 5835 5835 5834 5833 5833 5833 5832 5832 5832 5832 5832 5832 5832 5833 5833 5834 5834 5834 5834 5835 5836 5836 5836 5836
5846 5845 5845 5844 5844 5843 5842 5840 5840 5839 5838 5838 5837 5836 5836 5835 5834 5833 5833 5832 5832 5831 5831 5830 5830 5829 5829 5829 5829 5829 5829 5829 5829 5830 5830 5831 5831 5832 5832 5833 5833 5833 5833
5844 5843 5842 5841 5841 5840 5839 5838 5837 5837 5836 5835 5835 5834 5833 5832 5831 5831 5830 5829 5829 5828 5828 5827 5827 5826 5826 5826 5826 5826 5826 5826 5826 5827 5827 5828 5828 5829 5829 5830 5830 5830 5830
5842 5841 5840 5839 5838 5837 5837 5836 5835 5834 5833 5833 5832 5831 5830 5829 5828 5828 5827 5827 5826 5825 5825 5824 5824 5823 5823 5823 5823 5823 5823 5823 5823 5824 5824 5825 5825 5826 5826 5827 5827 5827 5827
5839 5838 5837 5836 5835 5834 5833 5833 5832 5831 5830 5829 5828 5828 5827 5826 5826 5825 5824 5824 5823 5822 5822 5821 5821 5820 5820 5820 5820 5820 5820 5820 5820 5821 5821 5822 5822 5822 5823 5823 5824 5824 5824
5837 5836 5835 5833 5832 5831 5831 5830 5829 5828 5827 5827 5826 5824 5824 5823 5823 5822 5821 5821 5820 5819 5819 5818 5818 5817 5817 5817 5817 5817 5817 5817 5817 5817 5818 5818 5818 5819 5820 5820 5821 5821 5821
5834 5833 5831 5830 5830 5829 5827 5826 5826 5825 5824 5823 5822 5821 5820 5820 5819 5819 5818 5818 5817 5816 5815 5815 5814 5814 5814 5814 5814 5814 5814 5815 5814 5814 5815 5815 5815 5816 5816 5817 5817 5817 5818
5831 5830 5828 5827 5826 5825 5824 5823 5822 5821 5821 5820 5818 5817 5817 5816 5816 5815 5815 5814 5813 5813 5812 5811 5811 5811 5811 5811 5811 5811 5811 5811 5811 5811 5811 5811 5812 5812 5813 5813 5813 5813 5814
5828 5826 5825 5823 5822 5821 5820 5819 5818 5818 5817 5816 5815 5814 5813 5813 5812 5812 5811 5810 5810 5809 5808 5808 5807 5807 5807 5807 5807 5807 5807 5807 5807 5807 5808 5808 5808 5809 5809 5809 5809 5809 5810
5824 5823 5821 5819 5818 5817 5816 5815 5815 5814 5813 5813 5811 5811 5810 5809 5809 5808 5807 5807 5806 5805 5804 5804 5803 5803 5803 5803 5803 5803 5803 5803 5803 5803 5804 5804 5804 5804 5804 5805 5805 5805 5805
5820 5819 5817 5815 5814 5813 5813 5812 5811 5810 5809 5809 5807 5807 5806 5805 5805 5804 5804 5803 5802 5801 5801 5800 5799 5799 5799 5799 5799 5799 5799 5799 5799 5799 5799 5799 5799 5800 5800 5800 5800 5800 5800
Wind_Speed
2 2 3 2 2 3 3 3 4 4 4 5 5 5 6 6 7 6 6 6 6 6 6 5 6 6 7 7 7 7 7 7 7 7 7 7 8 8 8 9 9 9 9
2 2 2 2 3 3 4 4 4 4 5 5 5 6 6 6 7 7 7 7 7 6 7 6 7 7 6 7 7 7 7 8 7 7 8 8 8 9 8 8 8 8 8
2 2 3 3 3 3 4 4 4 4 5 5 6 6 7 7 7 7 8 8 8 7 7 7 7 7 7 7 7 7 7 8 9 9 9 9 9 9 10 9 9 9 9
2 2 3 3 4 4 4 4 4 5 5 5 6 7 7 7 7 7 8 8 8 8 9 9 9 8 8 8 8 8 8 8 8 9 10 10 10 10 11 11 10 10 10
3 3 3 4 4 4 4 4 5 5 5 5 6 6 6 7 7 7 8 8 8 8 9 9 9 9 9 9 9 9 9 9 8 9 10 11 11 11 11 11 11 11 10
4 4 4 4 4 5 5 5 5 5 5 5 5 6 6 7 7 8 8 8 8 8 9 10 10 10 10 10 10 10 10 10 9 9 10 10 10 11 11 11 11 11 10
4 4 4 4 5 5 5 5 5 5 5 5 6 6 6 7 7 8 9 9 9 9 10 10 10 10 11 10 11 11 11 10 9 10 10 10 10 10 11 12 11 11 11
4 4 5 5 5 5 5 5 5 5 5 5 5 6 6 7 8 8 8 9 10 10 10 11 10 10 11 11 11 12 11 11 10 10 10 10 10 10 11 11 11 12 12
4 4 5 5 5 5 5 5 6 6 6 6 6 6 6 7 8 9 9 9 10 10 10 11 11 11 11 11 12 12 11 11 11 11 11 10 11 11 12 12 12 12 12
5 5 5 5 5 5 5 6 6 6 7 7 6 6 7 7 8 8 9 10 10 11 11 10 10 10 11 11 11 12 12 12 12 12 12 11 11 12 12 13 13 13 12
5 5 5 5 6 6 6 6 7 7 7 7 7 7 7 8 8 9 9 10 10 10 11 11 11 11 11 11 11 12 12 12 12 12 12 12 12 12 12 12 13 13 13
6 6 5 5 5 6 6 6 7 7 7 7 7 7 7 8 9 9 9 10 10 10 11 11 11 11 11 11 11 11 12 12 12 13 13 13 13 13 12 12 12 13 13
6 6 6 5 5 6 6 6 7 7 7 7 7 8 8 8 9 9 10 10 10 11 11 11 11 11 11 11 11 11 11 12 12 13 13 13 13 13 13 13 13 13 13
6 6 6 6 6 6 6 7 7 7 8 8 8 8 8 8 9 10 10 10 10 11 11 11 11 11 11 12 12 12 12 12 12 12 13 13 13 13 13 13 13 13 13
7 6 6 6 6 7 7 7 7 8 8 8 9 9 9 9 10 10 10 10 10 10 11 11 11 11 11 11 12 12 13 12 12 12 12 13 13 13 13 13 13 14 14
7 7 7 7 7 7 8 8 8 8 9 9 9 9 9 10 10 10 10 10 10 10 10 11 11 11 11 11 11 12 12 12 12 12 12 12 12 12 12 13 14 14 14
8 8 8 7 7 7 8 8 8 9 9 10 10 9 10 10 10 10 10 10 10 10 10 10 11 11 11 11 11 11 12 12 13 13 13 13 12 13 13 13 13 13 14
8 8 8 8 8 8 9 9 9 9 9 10 10 10 10 10 11 10 10 10 10 10 10 11 11 11 11 11 11 11 12 12 12 13 13 13 13 13 13 13 13 13 14
9 8 9 9 9 9 9 9 9 10 10 11 11 11 11 11 11 10 10 10 11 11 10 11 11 11 11 11 11 11 11 12 12 12 13 13 13 13 13 13 13 13 13
10 9 9 10 11 11 11 10 11 11 11 11 11 11 11 11 11 11 10 11 11 11 11 11 10 11 11 11 11 11 10 11 12 12 13 14 14 13 13 13 13 13 13
11 10 10 11 11 11 11 11 12 11 11 11 12 12 12 11 11 11 10 10 10 10 10 10 11 11 11 11 12 12 12 12 13 13 14 14 14 14 14 14 14 14 14
11 12 11 12 12 12 12 12 12 13 13 12 12 12 11 11 12 12 11 10 10 11 11 11 11 11 11 12 12 12 13 13 14 15 15 15 15 14 14 15 16 15 15
13 13 14 14 14 13 12 12 12 13 13 14 14 13 12 12 12 13 12 11 12 12 11 11 11 11 11 12 12 13 13 14 14 14 14 14 14 14 15 15 16 17 16
14 14 14 14 14 13 13 13 12 13 14 14 14 14 13 13 13 13 12 12 13 13 12 12 12 12 12 12 13 13 13 13 14 14 15 16 16 15 16 16 16 17 17
15 15 15 14 14 14 14 13 13 13 13 14 14 14 14 13 13 13 13 13 13 14 13 13 13 13 12 13 13 14 14 14 15 15 15 16 17 16 17 17 17 17 17
15 15 15 15 15 15 15 14 14 14 14 14 14 14 14 14 14 14 14 14 14 14 13 13 13 14 13 14 14 15 16 15 15 16 16 16 16 16 17 18 18 17 17
Wind_Direction
318 308 306 304 295 290 296 292 282 276 275 274 268 257 254 251 251 251 253 257 254 252 248 245 242 239 235 236 241 238 230 226 227 224 222 219 217 220 220 220 222 224 225
306 296 299 299 291 289 291 287 283 281 277 277 273 264 259 257 252 253 254 258 257 252 246 245 248 244 241 245 243 243 244 237 234 229 231 228 228 229 230 231 229 229 231
309 290 284 290 289 288 286 282 285 283 282 280 275 269 265 262 256 256 255 257 255 252 251 250 250 246 249 247 247 249 253 251 244 238 240 238 237 236 236 238 237 235 232
308 293 284 289 293 293 285 281 284 286 282 279 274 269 265 264 258 258 259 257 255 255 257 256 254 252 252 249 249 254 253 253 250 245 245 241 240 241 242 240 240 240 237
310 297 289 289 288 291 290 286 285 287 285 283 277 272 267 268 263 258 258 262 261 259 260 257 255 253 252 250 250 254 257 257 252 251 248 245 246 245 244 241 241 241 240
313 301 289 290 286 288 289 287 286 285 284 284 278 272 268 268 266 260 260 263 263 261 261 259 256 254 254 255 256 257 259 257 255 255 253 248 249 247 246 244 243 242 241
305 300 292 293 290 288 287 289 290 290 289 286 284 278 272 269 269 263 262 262 264 264 264 264 260 257 256 258 259 259 262 260 258 257 253 250 249 250 247 248 246 243 245
301 299 295 294 291 289 290 288 289 291 292 292 288 283 277 273 271 268 263 262 263 263 263 264 262 261 260 260 260 261 263 263 261 258 255 255 253 253 250 247 247 245 246
298 289 291 292 292 289 287 287 289 293 296 296 296 289 282 278 275 271 266 266 267 266 265 263 260 260 263 262 259 259 262 265 264 259 255 253 255 255 252 250 250 252 250
307 302 300 296 293 293 294 293 291 294 297 296 297 293 285 282 280 277 272 270 269 267 266 266 262 262 263 264 263 261 262 264 266 260 256 255 254 256 255 253 252 252 253
313 308 300 295 296 294 292 292 294 297 296 294 294 293 290 285 281 279 277 273 270 267 265 266 267 267 264 262 262 262 261 263 263 259 256 257 257 259 257 255 255 255 255
310 310 308 294 292 295 291 291 294 296 294 293 292 290 289 287 282 281 278 275 273 269 266 266 268 269 267 266 265 263 264 264 263 260 256 258 260 258 256 256 256 258 257
315 314 310 299 292 291 292 293 295 294 292 292 291 287 288 290 284 282 278 276 275 271 267 268 269 268 267 266 266 266 268 264 260 259 258 259 257 255 255 257 257 258 258
312 310 306 299 295 289 293 296 296 296 292 289 289 287 288 291 289 286 282 278 276 273 270 271 271 270 270 268 265 264 266 264 259 256 257 260 258 256 257 258 257 257 258
315 313 308 299 300 298 296 296 297 297 295 292 290 288 287 290 290 288 283 278 277 277 272 271 270 270 271 272 267 264 263 261 258 255 258 260 259 257 258 259 260 262 261
315 314 308 298 297 300 300 298 298 298 297 295 294 292 290 290 289 287 284 280 276 274 272 272 270 271 272 271 268 263 260 259 256 254 254 257 258 256 257 260 261 262 263
316 311 305 297 292 292 296 300 301 303 302 299 297 296 293 291 289 287 286 286 281 276 277 275 272 273 271 271 269 262 258 257 256 256 255 257 257 255 255 259 260 262 262
315 313 307 300 293 291 292 298 303 304 303 300 299 297 295 292 290 289 286 284 281 280 279 276 274 273 270 272 274 267 262 261 258 256 256 254 255 255 256 258 259 260 260
312 309 307 303 302 297 294 297 302 301 298 295 297 296 295 293 291 290 287 285 282 281 279 277 275 271 267 269 270 268 265 260 259 255 253 254 255 254 256 260 260 259 260
311 309 305 302 300 298 296 297 298 298 296 294 295 295 295 294 292 291 288 287 284 282 282 278 274 270 267 266 263 263 263 259 259 255 252 254 255 257 258 259 261 259 259
310 310 305 302 300 297 294 292 292 294 293 292 293 293 293 292 291 291 290 290 289 288 286 280 275 271 268 267 262 257 259 261 262 258 254 255 257 259 258 258 258 259 259
306 306 303 302 301 296 292 292 291 292 291 290 288 290 290 288 285 285 285 287 289 291 288 280 277 272 269 268 263 258 258 259 262 258 255 254 257 257 258 258 256 257 259
299 303 303 299 300 296 293 292 291 290 292 289 288 291 291 288 286 284 283 284 285 286 285 280 276 274 270 267 264 263 264 262 260 258 254 252 254 255 256 257 256 256 257
299 300 300 297 297 293 290 290 290 289 289 290 290 291 291 288 288 286 285 286 285 283 282 278 274 272 269 267 265 265 266 265 261 259 257 256 256 258 257 257 258 257 255
298 299 299 295 292 290 289 289 288 287 287 288 289 288 287 286 286 285 284 284 284 283 281 278 274 270 269 267 266 266 268 268 262 260 260 259 259 259 260 259 259 257 256
297 298 298 295 290 286 285 285 288 288 286 288 289 286 285 285 284 282 281 282 284 283 282 280 274 270 267 266 266 267 267 267 264 263 261 261 261 261 262 262 261 259 257